Home > Weather > Sacramento > Past weeks

Flag for U.S.A. Weather for the Past 2 Weeks in Sacramento, California, U.S.A.

Now
68 °F

Sunny.


Feels Like: 68 °F
Forecast: 45 / 71 °F
Wind: 5 mph from West

Location: Sacramento Executive Airport

Current Time: Feb 11, 2016 at 3:37:58 PM

Latest Report: Feb 11, 2016 at 2:53 PM


Visibility: 10 mi

Pressure: 30.12 "Hg

Humidity: 57%

Dew point: 52 °F

Location of SacramentoLocation

Historic Weather in Sacramento — Graph

°F

Sacramento Temperature Yesterday

Maximum temperature yesterday: 69 °F (at 1:53 PM)
Minimum temperature yesterday: 43 °F (at 5:53 AM)
Average temperature yesterday: 55 °F

High & Low Weather Summary for the Past Weeks

 TemperatureHumidityPressure
High74 °F (Feb 8, 2:53 PM)100% (Feb 6, 7:53 AM)30.49 "Hg (Feb 6, 7:53 AM)
Low35 °F (Feb 3, 3:53 AM)29% (Feb 1, 2:53 PM)29.71 "Hg (Jan 31, 2:53 PM)
Average51 °F75%30.22 "Hg
* Reported Jan 27 12:53 PM — Feb 11 12:53 PM, Sacramento, Weather by CustomWeather, © 2016

Note: Actual official high and low records may vary slightly from our data, if they occured in-between our weather recording intervals... More about our weather records

Advertising

Sacramento Weather History for the Previous 24 Hours

 ConditionsComfort  
Time TempWeatherWind HumidityBarometerVisibility
12:53 PM
Thu, Feb 11
67 °FSunny.No wind55%30.15 "Hg10 mi
11:53 AM65 °FSunny.No wind61%30.18 "Hg10 mi
10:53 AM64 °FSunny.No wind61%30.19 "Hg10 mi
9:53 AM60 °FSunny.5 mph69%30.18 "Hg9 mi
8:53 AM54 °FSunny.3 mph80%30.17 "Hg10 mi
7:53 AM46 °FSunny.No wind89%30.18 "Hg8 mi
6:53 AM43 °FClear.No wind89%30.16 "Hg4 mi
5:53 AM45 °FClear.3 mph90%30.15 "Hg9 mi
4:53 AM45 °FClear.3 mph90%30.15 "Hg7 mi
4:04 AM45 °FClear.No wind93%30.16 "Hg2 mi
2:53 AM48 °FClear.No wind89%30.16 "Hg10 mi
1:53 AM48 °FClear.No wind89%30.16 "Hg9 mi
12:53 AM50 °FClear.3 mph89%30.16 "Hg10 mi
11:53 PM
Wed, Feb 10
49 °FClear.No wind90%30.17 "Hg10 mi
10:53 PM50 °FClear.No wind86%30.16 "Hg10 mi
9:53 PM51 °FClear.3 mph86%30.16 "Hg10 mi
8:53 PM51 °FClear.No wind86%30.15 "Hg10 mi
7:53 PM55 °FClear.No wind77%30.15 "Hg10 mi
6:53 PM58 °FClear.No wind67%30.15 "Hg10 mi
5:53 PM63 °FClear.5 mph54%30.16 "Hg10 mi
4:53 PM65 °FSunny.8 mph59%30.17 "Hg10 mi
3:53 PM67 °FSunny.9 mph53%30.19 "Hg10 mi
Weather by CustomWeather, © 2016

See weather overviewHow to use our weather pages